Simultaneous Nadir Overpasses (SNOs) Predictions

Prediction of SNOs between NOAA-21 and LANDSAT-8 Satellite Orbit:

Table of predicted SNOs for the next 14.0 days since TLE Epoch: 11/9/2024
Index Date (NOAA-21) Time (NOAA-21) Lat,Lon (NOAA-21) SZA (NOAA-21 ) Date (LANDSAT-8) Time (LANDSAT-8) Lat,Lon (LANDSAT-8) SZA (LANDSAT-8 ) Distance(km) Time Diff (sec)
1 11/09/2024 21:47:42 -70.25, 29.51 92.67 11/09/2024 21:48:21 -70.25, 29.57 92.67 2.52 39
2 11/09/2024 22:38:26 70.12,-162.98 87.21 11/09/2024 22:37:49 70.10,-163.00 87.19 2.61 37
3 11/12/2024 13:14:06 70.46, -22.41 88.27 11/12/2024 13:15:17 70.40, -21.95 88.21 18.24 71
4 11/12/2024 14:04:44 -70.15, 145.38 92.03 11/12/2024 14:04:49 -70.18, 145.36 92.01 2.82 5
5 11/12/2024 14:55:29 70.08, -47.20 87.91 11/12/2024 14:54:16 70.07, -47.15 87.90 2.22 73
6 11/15/2024 05:31:06 70.24, 93.65 88.75 11/15/2024 05:31:46 70.23, 93.70 88.74 2.06 40
7 11/15/2024 06:21:48 -70.14, -98.88 91.35 11/15/2024 06:21:16 -70.12, -98.83 91.37 3.04 32
8 11/17/2024 20:57:30 -70.59, 41.52 90.26 11/17/2024 20:58:41 -70.47, 42.30 90.38 32.00 71
9 11/17/2024 21:48:08 70.17,-150.50 89.33 11/17/2024 21:48:11 70.19,-150.46 89.35 3.40 3
10 11/17/2024 22:38:50 -70.06, 16.97 90.77 11/17/2024 22:37:41 -70.09, 17.02 90.75 3.14 69
11 11/20/2024 13:14:26 -70.23, 157.82 90.01 11/20/2024 13:15:08 -70.24, 157.86 90.00 1.66 42
12 11/20/2024 14:05:10 70.13, -34.71 89.90 11/20/2024 14:04:35 70.12, -34.66 89.89 2.03 35



Historial Predications of SNOs between NOAA-21 and LANDSAT-8
